"America/Chicago Time","Lifetime Energy (kWh)","Power (W)","AC Volts RMS (V) ","AC Amps RMS (mA)","Grid Frequency (Hz)","Inverter Temperature (C)"
"09/02/12 10:25:59","429666.8768","124.3","218.07","581","60.0","32"
"09/02/12 10:30:58","429666.8865","125.6","217.59","583","60.03","32"
"09/02/12 10:35:58","429666.8964","128.2","217.83","595","60.0","33"
"09/02/12 10:40:58","429666.9063","128.2","216.82","599","60.0","33"
"09/02/12 10:45:58","429666.9164","130.7","216.87","614","60.03","33"
"09/02/12 10:50:59","429666.9267","132.0","217.43","614","60.03","34"
"09/02/12 10:55:58","429666.937","133.8","217.04","624","60.0","34"
"09/02/12 11:00:58","429666.9475","135.3","216.55","630","60.0","34"
"09/02/12 11:05:58","429666.9581","137.0","216.42","641","60.03","35"
"09/02/12 11:10:58","429666.9688","138.5","217.6","643","60.0","35"
"09/02/12 11:15:59","429666.9797","138.0","217.87","637","60.03","35"
"09/02/12 11:20:59","429666.9902","131.9","217.16","614","60.03","35"
"09/02/12 11:25:57","429667.0007","136.1","217.4","632","60.03","35"
"09/02/12 11:30:58","429667.0114","141.3","216.61","658","60.0","36"
"09/02/12 11:35:58","429667.0224","138.0","217.09","642","60.03","36"
"09/02/12 11:40:59","429667.0334","143.6","217.67","662","60.03","36"
"09/02/12 11:45:59","429667.0443","137.0","217.25","642","60.03","36"
"09/02/12 11:50:59","429667.0547","135.1","217.06","628","60.03","36"
"09/02/12 11:55:57","429667.0646","127.4","217.18","597","60.03","35"
"09/02/12 12:00:57","429667.0748","125.4","216.85","589","60.07","36"
"09/02/12 12:05:59","429667.0841","115.3","216.26","546","60.03","35"
"09/02/12 12:10:58","429667.0931","123.5","216.58","577","60.03","35"
"09/02/12 12:15:58","429667.1032","143.9","217.47","668","60.0","35"
"09/02/12 12:20:58","429667.1138","133.7","216.96","626","60.03","35"
"09/02/12 12:25:57","429667.1245","136.6","217.68","633","60.0","35"
"09/02/12 12:30:59","429667.1356","137.6","217.43","641","60.0","36"
"09/02/12 12:35:58","429667.1467","138.4","217.65","643","60.03","36"
"09/02/12 12:40:58","429667.1553","81.8","215.53","405","60.0","35"
"09/02/12 12:45:58","429667.1632","138.9","216.81","648","60.0","35"
"09/02/12 12:50:58","429667.1737","133.1","216.87","623","60.03","35"
"09/02/12 12:55:58","429667.1844","141.7","217.26","655","60.0","35"
"09/02/12 13:00:57","429667.1953","141.5","216.5","661","60.03","36"
"09/02/12 13:05:58","429667.2063","143.2","216.68","664","60.03","36"
"09/02/12 13:10:57","429667.2171","138.2","216.71","643","60.0","37"
"09/02/12 13:15:59","429667.2283","144.7","216.86","669","60.0","37"
"09/02/12 13:20:59","429667.2394","141.6","217.07","659","60.03","38"
"09/02/12 13:25:58","429667.2503","139.4","216.82","651","60.03","38"
"09/02/12 13:30:58","429667.2612","139.9","217.63","650","60.03","38"
"09/02/12 13:35:57","429667.272","136.5","217.05","637","60.0","38"
"09/02/12 13:40:58","429667.2825","130.3","217.12","606","60.0","38"
"09/02/12 13:45:59","429667.2922","111.3","216.0","531","60.03","38"
"09/02/12 13:50:58","429667.3013","133.1","216.92","621","60.03","38"
"09/02/12 13:55:57","429667.3114","132.0","217.31","613","60.03","38"
"09/02/12 14:00:58","429667.322","135.2","217.47","627","60.03","38"
"09/02/12 14:05:57","429667.3324","131.6","216.99","616","60.07","38"
"09/02/12 14:10:59","429667.3425","127.2","216.65","597","60.03","38"
"09/02/12 14:15:58","429667.352","120.9","217.04","565","60.03","38"
"09/02/12 14:20:59","429667.3616","127.4","217.33","595","60.03","38"
"09/02/12 14:25:59","429667.3715","127.0","216.95","593","60.03","38"
"09/02/12 14:30:58","429667.3812","122.6","217.01","574","60.03","38"
"09/02/12 14:35:59","429667.3906","119.1","217.06","560","60.0","38"
"09/02/12 14:40:59","429667.3994","115.6","216.45","545","60.03","38"
"09/02/12 14:45:58","429667.4088","118.9","216.24","559","60.0","38"
"09/02/12 14:50:58","429667.4177","99.3","215.41","477","60.0","38"
"09/02/12 14:55:59","429667.426","119.5","216.29","566","60.0","37"
"09/02/12 15:00:59","429667.4352","116.8","216.61","551","60.07","37"
"09/02/12 15:05:57","429667.4441","112.4","216.33","533","60.03","37"
"09/02/12 15:10:59","429667.4528","111.6","215.9","532","60.0","37"
"09/02/12 15:15:57","429667.4614","110.3","215.85","525","60.0","37"
"09/02/12 15:20:58","429667.47","107.3","215.97","511","60.0","37"
"09/02/12 15:25:57","429667.4783","106.4","215.74","509","60.0","37"
"09/02/12 15:30:58","429667.4865","103.0","215.87","495","60.03","37"
"09/02/12 15:35:57","429667.4943","101.1","217.38","483","60.0","36"
"09/02/12 15:40:58","429667.502","98.0","216.51","472","60.03","36"
"09/02/12 15:45:58","429667.5096","96.1","215.62","463","60.03","36"
"09/02/12 15:50:57","429667.517","93.6","215.1","456","60.03","35"
"09/02/12 15:55:58","429667.5241","88.9","215.49","435","60.03","35"
"09/02/12 16:00:59","429667.5305","72.5","215.79","365","60.03","35"
"09/02/12 16:05:57","429667.5365","74.7","215.11","373","60.03","34"
"09/02/12 16:10:59","429667.5426","79.5","214.97","391","60.03","34"
"09/02/12 16:15:58","429667.5486","72.8","215.61","366","60.03","34"
"09/02/12 16:20:58","429667.553","42.2","214.51","358","60.03","34"
"09/02/12 16:25:59","429667.5554","12.8","214.23","96","60.03","33"
"09/02/12 16:30:59","429667.5568","15.4","214.42","151","60.0","32"
"09/02/12 16:35:57","429667.5588","30.8","214.86","85","60.03","31"
"09/02/12 16:40:58","429667.5608","22.2","214.77","286","60.03","31"
"09/02/12 16:45:57","429667.5627","31.1","214.67","125","60.03","30"
"09/02/12 16:50:58","429667.5646","30.2","214.79","68","60.03","30"
"09/02/12 16:55:57","429667.5668","35.8","214.49","103","60.03","29"
"09/02/12 17:00:58","429667.5704","55.4","215.74","361","60.0","29"
"09/02/12 17:05:58","429667.5746","39.8","215.4","88","60.0","30"
"09/02/12 17:10:59","429667.5786","44.4","215.3","378","60.0","30"
"09/02/12 17:15:59","429667.5825","41.4","215.3","372","60.03","30"
"09/02/12 17:20:59","429667.5861","38.8","214.97","344","60.03","30"
"09/02/12 17:25:58","429667.5893","42.7","214.54","284","60.0","30"
"09/02/12 17:30:58","429667.5919","28.2","213.64","111","60.07","30"
"09/02/12 17:35:57","429667.5943","25.9","213.67","101","60.03","30"
"09/02/12 17:40:57","429667.5964","36.2","213.83","118","60.03","29"
"09/02/12 17:45:57","429667.5983","30.8","214.29","47","60.03","29"
"09/02/12 17:50:59","429667.6","16.9","214.75","6","60.07","28"
"09/02/12 17:55:58","429667.6013","12.9","214.33","4","60.0","28"
"09/02/12 18:00:58","429667.6025","10.8","213.14","56","60.03","28"
"09/02/12 18:05:57","429667.6034","14.1","214.22","55","60.03","28"
"09/02/12 18:10:58","429667.6041","12.7","214.17","59","60.0","27"
"09/02/12 18:15:58","429667.6045","0.0","214.58","0","60.0","27"
"09/02/12 18:20:59","429667.6048","10.5","213.46","39","60.03","27"
"09/02/12 18:25:59","429667.6051","11.1","213.86","239","60.03","27"
"09/02/12 18:30:59","429667.6054","0.0","213.88","0","60.03","26"
"09/02/12 18:35:59","429667.6057","0.0","214.56","0","60.03","26"
"09/02/12 18:40:58","429667.606","8.1","213.08","231","60.03","26"
"09/02/12 18:45:58","429667.6063","0.0","213.16","0","60.03","26"
"09/02/12 18:50:58","429667.6066","0.0","213.57","0","60.0","25"
"09/02/12 18:55:58","429667.6069","0.0","213.66","0","60.03","25"
"09/03/12 07:48:22","429667.6079","0.0","213.67","0","60.0","21"
"09/03/12 07:53:22","429667.6085","0.0","214.85","0","60.03","21"
"09/03/12 07:58:21","429667.6092","7.7","214.11","0","60.03","22"
"09/03/12 08:03:22","429667.6099","14.4","213.49","6","60.03","22"
"09/03/12 08:08:21","429667.6104","10.6","213.48","5","60.0","22"
"09/03/12 08:13:21","429667.6113","11.6","214.91","26","60.0","22"
"09/03/12 08:18:21","429667.6128","15.8","214.08","5","60.03","23"
"09/03/12 08:23:21","429667.6143","30.4","214.48","102","60.0","23"
"09/03/12 08:28:21","429667.6162","30.6","214.33","190","60.0","23"
"09/03/12 08:33:21","429667.6192","36.7","214.23","247","60.0","24"
"09/03/12 08:38:21","429667.6213","32.6","213.6","227","60.0","24"
"09/03/12 08:43:20","429667.6243","56.3","214.7","395","60.0","24"
"09/03/12 08:48:21","429667.6287","77.5","214.86","381","60.0","25"
"09/03/12 08:53:21","429667.6338","47.3","213.84","273","60.03","26"
"09/03/12 08:58:21","429667.6363","55.5","214.84","181","60.0","26"
"09/03/12 09:03:21","429667.6402","47.2","215.0","349","60.03","27"
"09/03/12 09:08:20","429667.6402","33.6","214.09","335","60.03","27"
"09/03/12 09:13:22","429667.6424","24.6","213.18","110","60.0","27"
"09/03/12 09:18:22","429667.6445","34.5","213.62","281","59.96","27"
"09/03/12 09:23:21","429667.6469","20.0","212.86","17","60.0","27"
"09/03/12 09:28:22","429667.6489","38.0","214.3","225","60.0","27"
"09/03/12 09:33:22","429667.6521","46.1","213.48","264","60.03","27"
"09/03/12 09:38:22","429667.6545","32.1","214.07","175","60.0","27"
"09/03/12 09:43:21","429667.6581","49.4","213.98","251","60.0","27"
"09/03/12 09:48:21","429667.6611","29.7","213.53","100","60.03","28"
"09/03/12 09:53:21","429667.6634","26.1","213.02","20","60.0","28"
"09/03/12 09:58:21","429667.6652","33.4","213.84","295","60.03","28"
"09/03/12 10:03:22","429667.6671","17.8","213.22","257","60.03","28"
"09/03/12 10:08:22","429667.6688","14.0","213.61","236","60.0","28"
"09/03/12 10:13:22","429667.6703","16.3","212.77","209","60.0","28"
"09/03/12 10:18:22","429667.6718","30.2","213.67","131","60.0","27"
"09/03/12 10:23:21","429667.6735","32.7","213.86","39","60.03","28"
"09/03/12 10:28:22","429667.6757","32.8","214.0","126","60.03","28"
"09/03/12 10:33:22","429667.6779","14.9","213.76","83","60.0","28"
"09/03/12 10:38:22","429667.6801","29.1","214.51","249","60.0","28"
"09/03/12 10:43:21","429667.6825","40.6","214.64","223","60.03","28"
"09/03/12 10:48:21","429667.6856","49.3","214.5","379","60.03","29"
"09/03/12 10:53:22","429667.6893","49.2","215.86","343","60.03","29"
"09/03/12 10:58:22","429667.6932","41.4","215.38","383","60.03","30"
"09/03/12 11:03:21","429667.6987","91.3","217.57","443","60.03","30"
"09/03/12 11:08:22","429667.7077","115.2","217.73","542","60.03","32"
"09/03/12 11:13:21","429667.7158","90.7","216.26","440","60.0","32"
"09/03/12 11:18:22","429667.7218","52.4","215.67","103","60.03","32"
"09/03/12 11:23:22","429667.7256","57.4","215.58","328","60.03","32"
"09/03/12 11:28:22","429667.7285","32.4","215.3","22","60.03","32"
"09/03/12 11:33:22","429667.731","48.3","214.5","275","60.03","32"
"09/03/12 11:38:21","429667.7347","56.7","215.38","118","60.0","32"
"09/03/12 11:43:21","429667.7378","42.3","215.33","373","60.03","32"
"09/03/12 11:48:22","429667.7417","45.3","214.53","275","60.03","32"
"09/03/12 11:53:22","429667.7456","54.7","215.26","132","60.03","32"
"09/03/12 11:58:21","429667.7493","51.3","214.8","336","60.0","32"
"09/03/12 12:03:22","429667.7525","36.7","214.7","124","60.07","32"
"09/03/12 12:08:21","429667.7561","51.8","214.89","157","60.07","32"
"09/03/12 12:13:21","429667.7593","31.7","214.56","150","60.03","32"
"09/03/12 12:18:21","429667.7645","90.7","215.68","440","60.03","32"
"09/03/12 12:23:21","429667.7715","64.8","214.68","329","60.03","32"
"09/03/12 12:28:21","429667.7765","82.6","215.44","404","60.0","32"
"09/03/12 12:33:22","429667.7808","60.2","214.76","95","60.0","32"
"09/03/12 12:38:21","429667.7862","154.4","218.04","710","60.0","32"
"09/03/12 12:43:22","429667.7977","133.7","217.26","626","60.03","34"
"09/03/12 12:48:22","429667.8064","154.0","217.53","704","60.03","34"
"09/03/12 12:53:22","429667.8164","50.4","214.76","363","60.03","35"
"09/03/12 12:58:21","429667.8253","40.8","214.21","335","60.03","36"
"09/03/12 13:03:22","429667.8326","159.9","216.45","740","60.03","36"
"09/03/12 13:08:22","429667.8436","161.9","217.56","745","60.03","37"
"09/03/12 13:13:22","429667.8545","162.6","216.85","750","60.0","38"
"09/03/12 13:18:21","429667.8634","136.5","216.21","636","60.03","38"
"09/03/12 13:23:21","429667.8754","158.7","217.22","731","60.0","39"
"09/03/12 13:28:22","429667.887","146.1","216.09","679","60.03","39"
"09/03/12 13:33:21","429667.8986","141.3","216.14","658","60.0","40"
"09/03/12 13:38:21","429667.9093","122.0","215.62","577","60.03","40"
"09/03/12 13:43:21","429667.9202","136.8","216.64","638","60.03","41"
"09/03/12 13:48:21","429667.9315","149.6","216.65","692","60.03","41"
"09/03/12 13:53:21","429667.9428","142.1","216.37","657","60.0","41"
"09/03/12 13:58:22","429667.954","143.8","217.38","668","60.03","41"
"09/03/12 14:03:22","429667.9651","140.8","216.94","653","60.03","42"
"09/03/12 14:08:21","429667.9759","138.3","216.79","644","60.03","42"
"09/03/12 14:13:23","429667.9867","136.3","216.75","638","60.03","42"
"09/03/12 14:18:22","429667.9973","137.5","216.16","637","60.03","42"
"09/03/12 14:23:22","429668.0075","102.9","216.19","492","60.03","42"
"09/03/12 14:28:22","429668.0141","76.7","215.9","384","60.03","41"
"09/03/12 14:33:21","429668.0202","72.2","214.55","360","60.0","41"
"09/03/12 14:38:22","429668.0271","109.8","215.52","523","60.03","40"
"09/03/12 14:43:22","429668.0327","49.6","213.86","350","60.03","39"
"09/03/12 14:48:21","429668.0367","48.0","213.97","410","60.03","39"
"09/03/12 14:53:21","429668.0412","46.2","213.68","369","60.03","38"
"09/03/12 14:58:21","429668.0443","46.1","213.4","331","60.03","37"
"09/03/12 15:03:21","429668.0477","49.6","213.73","216","60.03","37"
"09/03/12 15:08:22","429668.0514","80.2","214.97","399","60.03","36"
"09/03/12 15:13:22","429668.0578","47.0","214.09","336","60.0","36"
"09/03/12 15:18:21","429668.0618","117.2","215.49","555","60.0","36"
"09/03/12 15:23:21","429668.0707","121.5","215.48","571","60.0","36"
"09/03/12 15:28:22","429668.0795","109.3","214.87","524","60.03","37"
"09/03/12 15:33:22","429668.087","108.6","214.6","522","60.0","37"
"09/03/12 15:38:22","429668.0949","101.7","214.08","492","60.0","37"
"09/03/12 15:43:22","429668.1029","100.5","214.18","486","60.03","37"
"09/03/12 15:48:21","429668.1105","96.6","214.89","468","60.0","38"
"09/03/12 15:53:22","429668.1179","93.1","214.3","452","60.0","38"
"09/03/12 15:58:21","429668.1251","90.7","214.15","444","60.03","38"
"09/03/12 16:03:22","429668.1321","88.4","213.69","435","60.03","38"
"09/03/12 16:08:21","429668.1388","85.5","213.22","424","60.0","38"
"09/03/12 16:13:21","429668.1453","82.4","213.39","410","60.03","38"
"09/03/12 16:18:21","429668.1516","79.6","212.89","399","60.03","37"
"09/03/12 16:23:21","429668.1577","76.8","212.8","383","60.0","37"
"09/03/12 16:28:21","429668.1635","73.9","212.62","368","60.03","37"
"09/03/12 16:33:21","429668.1691","70.1","212.72","356","60.03","37"
"09/03/12 16:38:22","429668.1744","66.6","212.41","342","60.0","37"
"09/03/12 16:43:21","429668.1794","63.1","213.99","325","60.0","36"
"09/03/12 16:48:21","429668.1841","59.1","213.01","149","60.0","36"
"09/03/12 16:53:21","429668.188","57.8","213.07","181","60.03","36"
"09/03/12 16:58:21","429668.1919","44.4","213.55","255","60.03","36"
"09/03/12 17:03:21","429668.1958","50.5","213.09","365","59.96","35"
"09/03/12 17:08:22","429668.1995","42.0","214.4","161","60.03","35"
"09/03/12 17:13:22","429668.203","38.4","213.84","251","60.03","35"
"09/03/12 17:18:22","429668.2062","45.9","213.68","121","60.03","34"
"09/03/12 17:23:22","429668.2092","40.3","213.42","239","60.03","34"
"09/03/12 17:28:22","429668.212","29.0","212.71","86","60.03","34"
"09/03/12 17:33:21","429668.2144","28.2","213.67","263","60.0","34"
"09/03/12 17:38:21","429668.2166","19.4","214.29","242","60.03","33"
"09/03/12 17:43:22","429668.2185","31.5","213.63","191","60.0","33"
"09/03/12 17:48:22","429668.2202","21.3","212.67","253","60.03","32"
"09/03/12 17:53:23","429668.2217","26.6","213.13","224","60.03","32"
"09/03/12 17:58:21","429668.2228","12.0","213.14","3","60.03","32"
"09/03/12 18:03:22","429668.2239","7.4","212.96","251","60.0","32"
"09/03/12 18:08:21","429668.2246","14.6","212.63","16","60.03","31"
"09/03/12 18:13:23","429668.2253","10.5","212.3","47","60.0","31"
"09/03/12 18:18:21","429668.2257","6.3","212.6","136","60.0","30"
"09/03/12 18:23:21","429668.2261","0.0","212.3","0","60.03","30"
"09/03/12 18:28:21","429668.2262","0.0","212.42","0","60.03","30"
"09/04/12 06:53:22","429668.2278","0.0","214.22","0","60.03","18"
"09/04/12 06:58:22","429668.2283","0.0","214.97","0","60.03","18"
"09/04/12 07:03:21","429668.229","11.1","214.25","29","60.0","18"
"09/04/12 07:08:22","429668.2298","7.8","213.9","85","60.03","19"
"09/04/12 07:13:23","429668.2308","13.0","214.1","3","60.03","19"
"09/04/12 07:18:22","429668.232","16.3","214.1","11","60.0","20"
"09/04/12 07:23:21","429668.2335","21.9","214.69","219","60.03","20"
"09/04/12 07:28:22","429668.2352","29.6","214.26","73","60.03","20"
"09/04/12 07:33:22","429668.2372","25.8","213.77","85","60.03","20"
"09/04/12 07:38:23","429668.2394","34.3","214.98","228","60.03","21"
"09/04/12 07:43:23","429668.2418","28.3","214.63","208","60.03","22"
"09/04/12 07:48:22","429668.2445","39.5","214.35","231","60.03","22"
"09/04/12 07:53:22","429668.2474","45.6","212.77","234","60.03","23"
"09/04/12 07:58:23","429668.2507","49.9","214.07","289","60.03","23"
"09/04/12 08:03:23","429668.2542","54.1","213.82","166","60.07","24"
"09/04/12 08:08:22","429668.258","55.1","214.5","109","60.0","25"
"09/04/12 08:13:21","429668.2619","43.9","214.95","322","60.03","25"
"09/04/12 08:18:21","429668.2657","40.1","214.33","149","60.03","25"
"09/04/12 08:23:21","429668.2696","46.7","214.39","291","60.03","26"
"09/04/12 08:28:22","429668.2736","48.0","215.02","394","60.0","27"
"09/04/12 08:33:23","429668.2779","71.1","215.39","215","60.03","27"
"09/04/12 08:38:22","429668.2824","43.4","215.63","98","60.0","28"
"09/04/12 08:43:21","429668.288","76.7","215.81","381","60.0","28"
"09/04/12 08:48:22","429668.2941","79.9","215.69","393","60.0","29"
"09/04/12 08:53:23","429668.3005","82.7","215.42","408","60.03","29"
"09/04/12 08:58:21","429668.3069","85.2","215.01","420","60.03","30"
"09/04/12 09:03:22","429668.3137","87.3","215.86","427","60.03","30"
"09/04/12 09:08:22","429668.3206","89.7","215.96","438","60.03","31"
"09/04/12 09:13:22","429668.3277","92.3","216.1","448","60.03","32"
"09/04/12 09:18:23","429668.335","94.9","215.47","461","60.03","32"
"09/04/12 09:23:22","429668.3425","97.1","215.47","471","60.0","32"
"09/04/12 09:28:23","429668.3501","99.1","214.9","479","60.03","33"
"09/04/12 09:33:21","429668.3579","100.9","215.4","488","60.0","34"
"09/04/12 09:38:21","429668.3658","103.3","216.31","491","60.03","35"
"09/04/12 09:43:22","429668.374","105.0","215.4","501","60.0","36"
"09/04/12 09:48:23","429668.3822","106.7","215.0","512","60.03","37"
"09/04/12 09:53:21","429668.3906","108.4","215.66","520","60.03","38"
"09/04/12 09:58:22","429668.3991","110.5","214.31","529","60.0","38"
"09/04/12 10:03:22","429668.4078","113.2","215.04","536","60.03","39"
"09/04/12 10:08:22","429668.4167","116.1","215.09","550","60.0","39"
"09/04/12 10:13:22","429668.4259","118.4","217.13","557","60.0","39"
"09/04/12 10:18:22","429668.4351","120.5","216.42","570","60.03","39"
"09/04/12 10:23:23","429668.4447","123.2","216.76","578","60.03","39"
"09/04/12 10:28:22","429668.4542","124.2","215.95","586","60.03","39"
"09/04/12 10:33:22","429668.464","126.5","216.05","592","60.0","39"
"09/04/12 10:38:23","429668.4739","127.4","215.68","599","60.03","39"
"09/04/12 10:43:22","429668.4838","128.1","215.4","600","60.03","39"
"09/04/12 10:48:21","429668.4938","129.4","215.31","606","60.03","40"
"09/04/12 10:53:21","429668.5039","130.3","217.3","609","60.03","40"
"09/04/12 10:58:22","429668.5141","131.6","216.58","617","60.03","41"
"09/04/12 11:03:21","429668.5244","131.9","217.61","620","60.03","42"
"09/04/12 11:08:22","429668.5349","134.3","217.39","627","60.03","42"
"09/04/12 11:13:22","429668.5454","135.6","217.43","631","60.03","42"
"09/04/12 11:18:22","429668.5559","136.7","217.75","636","60.0","42"
"09/04/12 11:23:22","429668.5667","137.6","216.32","644","60.0","42"
"09/04/12 11:28:22","429668.5773","139.1","215.71","652","60.0","42"
"09/04/12 11:33:23","429668.5882","139.1","216.23","648","60.0","42"
"09/04/12 11:38:22","429668.5991","139.6","216.44","651","60.0","43"
"09/04/12 11:43:22","429668.61","140.7","216.4","654","60.03","42"
"09/04/12 11:48:22","429668.6211","141.7","216.81","654","60.03","43"
"09/04/12 11:53:22","429668.6322","142.9","216.6","664","60.0","43"
"09/04/12 11:58:21","429668.6432","142.7","217.21","657","60.03","43"
"09/04/12 12:03:22","429668.6544","143.5","216.64","663","60.03","42"
"09/04/12 12:08:22","429668.6655","143.7","216.33","669","60.03","42"
"09/04/12 12:13:21","429668.6767","143.9","216.8","669","60.03","42"
"09/04/12 12:18:23","429668.688","145.2","216.86","673","60.03","42"
"09/04/12 12:23:23","429668.6993","145.2","216.71","673","60.0","42"
"09/04/12 12:28:23","429668.7106","145.4","217.41","675","59.96","42"
"09/04/12 12:33:21","429668.7219","146.3","217.73","676","60.0","42"
"09/04/12 12:38:22","429668.7333","146.6","217.52","679","60.03","42"
"09/04/12 12:43:22","429668.7449","150.2","216.03","693","60.0","42"
"09/04/12 12:48:23","429668.756","158.1","215.83","731","60.0","41"
"09/04/12 12:53:21","429668.7654","101.0","214.88","487","60.03","41"
"09/04/12 12:58:22","429668.774","90.9","214.88","443","60.03","40"
"09/04/12 13:03:23","429668.7841","147.1","216.65","678","60.03","40"
"09/04/12 13:08:23","429668.7942","103.0","216.21","489","60.03","40"
"09/04/12 13:13:22","429668.806","154.7","216.91","713","60.0","41"
"09/04/12 13:18:22","429668.8176","145.9","216.53","674","60.0","41"
"09/04/12 13:23:22","429668.8289","144.0","214.56","673","60.03","41"
"09/04/12 13:28:21","429668.8399","142.0","217.03","657","60.03","41"
"09/04/12 13:33:22","429668.851","140.1","216.74","652","60.0","41"
"09/04/12 13:38:22","429668.8618","138.0","216.26","640","60.03","41"
"09/04/12 13:43:22","429668.8725","137.1","216.29","636","60.0","41"
"09/04/12 13:48:23","429668.8831","135.8","215.47","636","60.0","42"
"09/04/12 13:53:23","429668.8936","134.4","216.85","627","60.03","42"
"09/04/12 13:58:22","429668.904","134.1","217.04","626","60.0","42"
"09/04/12 14:03:22","429668.9144","132.5","216.98","620","60.03","42"
"09/04/12 14:08:22","429668.9247","131.4","216.75","613","60.03","42"
"09/04/12 14:13:23","429668.9349","130.0","216.71","604","60.03","42"
"09/04/12 14:18:23","429668.945","128.4","216.82","601","60.0","42"
"09/04/12 14:23:23","429668.955","127.5","216.58","597","60.0","42"
"09/04/12 14:28:23","429668.9649","126.4","215.98","594","60.0","41"
"09/04/12 14:33:23","429668.9747","124.9","215.72","587","60.03","41"
"09/04/12 14:38:21","429668.9843","123.6","215.84","581","60.0","41"
"09/04/12 14:43:23","429668.9939","121.5","215.7","575","60.03","40"
"09/04/12 14:48:21","429669.0032","120.1","216.32","565","60.03","40"
"09/04/12 14:53:22","429669.0125","118.5","216.67","556","60.0","40"
"09/04/12 14:58:23","429669.0217","116.1","216.78","550","60.03","39"
"09/04/12 15:03:22","429669.0307","114.1","215.85","543","60.03","39"
"09/04/12 15:08:23","429669.0395","112.0","215.36","529","60.0","39"
"09/04/12 15:13:23","429669.0482","110.6","215.62","523","60.0","38"
"09/04/12 15:18:21","429669.0566","108.1","215.59","515","60.03","38"
"09/04/12 15:23:21","429669.065","105.9","215.02","504","60.0","38"
"09/04/12 15:28:22","429669.0731","103.3","215.96","495","60.03","38"
"09/04/12 15:33:23","429669.0811","101.0","215.47","487","60.03","38"
"09/04/12 15:38:23","429669.0888","98.6","214.84","473","60.0","37"
"09/04/12 15:43:22","429669.0964","96.6","215.31","466","60.03","37"
"09/04/12 15:48:22","429669.1038","93.9","215.68","455","60.03","36"
"09/04/12 15:53:22","429669.111","91.3","215.2","443","60.03","36"
"09/04/12 15:58:22","429669.117","25.2","214.33","238","60.03","36"
"09/04/12 16:03:23","429669.1238","88.4","215.61","430","60.0","35"
"09/04/12 16:08:21","429669.1304","84.4","215.88","412","60.0","35"
"09/04/12 16:13:23","429669.1351","82.9","215.91","404","60.03","34"
"09/04/12 16:18:23","429669.1413","77.8","214.86","388","60.0","34"
"09/04/12 16:23:21","429669.1472","74.3","215.21","368","60.0","33"